Погода в Первомайском

Россия / Приморский край     44°00′04″N   131°58′54″E
темп.,
°C
ветер,
м/с
пор.,
м/с
влажн.,
%
обл.,
%
осадки,
мм/ч
давл.,
гПа
погр.,
м
20 июня, вс
вс2001:00+13ю5119416 0.0 1002280
04:00+11ююв4897100 0.0 1002196
07:00+13ю599395 0.0 1002359
10:00+16ю4474100 0.0 1002815
13:00+17ю657299 0.1 1003955
16:00+16ююв5675100 0.1 1003718
19:00+14ю4785100 0.2 1004375
22:00+12ю3793100 0.4 1005276
21 июня, пн
пн2101:00+11ююв2595100 0.1 1006218
04:00+11ююв2495100 0.1 1006214
07:00+12ююв1194100 0.1 100782
10:00+13ссз1189100 0.1 1008253
13:00+17с117593 0.1 1008669
16:00+19ссв226876 0.4 10071062
19:00+17всв238599 0.9 1008118
22:00+14ююв229191 1.0 101035
22 июня, вт
вт2201:00+12ю249678 0.0 101086
04:00+10ю11965 0.0 101111
07:00+12ююв00935 0.0 101260
10:00+17з118037 0.0 1012536
13:00+22ссв12611 0.0 10111148
16:00+23св33551 0.0 10101295
19:00+22св11685 0.1 1010805
22:00+14ююв34891 0.1 101275
23 июня, ср
ср2301:00+12ю23924 0.0 101254
04:00+11ю22935 0.0 101217
07:00+13ю12885 0.0 101378
10:00+19юз11735 0.0 1012435
13:00+24в12570 0.0 1011928
16:00+26ссв12460 0.0 10091382
19:00+21ю68680 0.0 1010313
22:00+15ю511744 0.0 1011248
24 июня, чт
чт2401:00+13ю37814 0.0 1011144
04:00+12ю378379 0.0 1011128
07:00+13ю3784100 0.0 1011173
10:00+19ююз3464100 0.0 1010410
13:00+24ююз3452100 0.0 1009693
16:00+26ююз44455 0.0 1008850
19:00+21ююз69655 0.0 1008332
22:00+15ю411770 0.0 1009215